CAPE
0 0 0 0 0 0 0 0 0 0 0 0 0 0 0 0 0 0 12 42 0 50 259 304 557 679 604 378 307 385 327 445 474 404 151 21 1 4 4 8 5 9 5 4 8 4 3 8 6
0 0 0 0 0 0 0 0 0 0 0 0 0 0 0 0 0 24 25 5 27 134 105 207 437 529 452 310 329 391 373 438 453 250 82 12 8 7 9 8 3 9 2 3 8 8 6 6 1
0 0 0 0 0 0 0 0 0 0 0 0 0 0 0 0 0 5 0 24 68 40 3 112 346 401 366 233 121 86 219 403 332 149 53 0 0 3 1 2 2 6 3 5 7 1 3 2 0
0 0 0 0 0 0 0 0 0 0 0 0 0 0 0 0 0 0 0 20 0 0 0 26 245 288 234 103 4 104 181 314 262 150 14 3 0 1 1 3 3 8 5 2 0 0 0 0 0
0 0 0 0 0 0 0 0 0 0 0 0 0 0 0 0 0 0 0 5 0 0 0 31 81 105 26 2 45 11 187 303 237 109 0 0 0 3 3 6 4 8 2 0 0 0 0 0 0
0 0 0 0 0 0 0 0 0 0 0 0 0 0 0 0 0 0 0 0 0 0 0 28 33 1 0 0 29 24 183 150 71 7 0 0 0 1 5 6 6 5 0 0 0 0 0 0 0
0 0 0 0 0 0 0 0 0 0 0 0 0 0 0 0 0 0 11 4 0 0 0 2 14 0 0 0 0 0 2 9 4 0 0 0 0 3 4 3 4 0 0 0 0 0 0 0 0
0 0 0 0 0 0 0 0 0 0 0 0 0 0 0 0 0 4 6 2 0 0 0 0 0 0 0 0 0 0 0 0 0 0 0 0 0 0 0 0 0 0 0 0 0 0 0 0 0
0 0 0 0 0 0 0 0 0 0 0 0 0 0 0 0 0 6 5 0 0 0 0 0 0 0 0 0 0 0 0 0 0 0 0 0 0 0 0 0 0 0 0 0 0 0 0 0 0
0 0 0 0 0 0 0 0 0 0 0 0 0 0 0 0 0 0 0 0 0 0 0 0 0 0 0 0 0 0 0 0 0 0 0 0 0 0 0 0 0 0 0 0 0 0 0 0 0
0 0 0 0 0 0 0 0 0 0 0 0 0 0 0 0 0 0 0 0 0 0 0 0 0 0 0 0 0 0 0 0 0 0 0 0 0 0 0 0 0 0 0 0 0 0 0 0 0
0 0 0 0 0 0 0 0 0 0 0 0 0 0 0 0 0 0 0 0 0 0 0 0 0 0 0 0 0 0 0 0 0 0 0 0 0 0 0 0 0 0 0 0 0 0 0 0 0
0 0 0 0 0 0 0 0 0 0 0 0 0 0 0 0 0 0 0 0 7 2 2 0 0 0 0 0 0 0 0 0 0 0 0 0 0 0 0 0 0 0 0 0 0 0 0 0 0
0 0 0 0 0 0 0 0 0 0 0 0 0 0 0 0 0 0 0 0 0 0 1 0 0 0 0 0 0 0 0 0 0 0 0 0 0 0 0 0 0 0 0 0 0 0 0 0 0
0 0 0 0 0 0 0 0 0 0 0 0 0 0 0 0 0 0 0 0 0 0 1 5 0 0 0 0 0 0 0 0 0 0 0 0 0 0 0 0 0 0 0 0 0 0 0 0 0
0 0 0 0 0 0 0 0 0 0 0 0 0 0 0 0 0 0 0 0 0 0 0 4 8 0 0 0 0 0 0 0 0 0 0 0 0 0 0 0 0 0 0 0 0 0 0 0 0
0 0 0 0 0 0 0 0 0 0 0 0 0 0 0 0 0 0 0 0 0 0 0 0 9 0 0 0 0 0 0 0 0 0 0 0 0 0 0 0 0 0 0 0 0 0 0 0 0
0 0 0 0 0 0 0 0 0 0 0 0 0 0 0 0 0 0 0 0 0 0 0 0 0 7 0 0 0 0 0 0 0 0 0 0 0 0 0 0 0 0 0 0 0 0 0 0 0
0 0 0 0 0 0 0 0 0 0 0 0 0 0 0 0 0 0 0 0 0 0 0 0 0 0 0 0 0 0 0 0 0 0 0 0 0 0 0 0 0 0 0 0 0 0 0 0 0
0 0 0 0 0 0 0 0 0 0 0 0 0 0 0 0 0 0 0 0 0 0 0 0 0 0 0 0 0 0 0 0 0 0 0 0 0 0 0 0 0 0 0 0 0 0 0 0 0
0 0 0 0 0 0 0 0 0 0 0 0 0 0 0 0 0 0 0 0 0 0 0 0 0 0 0 0 0 0 0 0 0 0 0 0 0 0 0 0 0 0 0 0 0 0 0 0 0
0 0 0 0 0 0 0 0 0 0 0 0 0 0 0 0 0 0 0 0 0 0 0 0 0 0 0 0 0 0 0 0 0 0 0 0 0 0 0 0 0 0 0 0 0 0 0 0 0
0 0 0 0 0 0 0 1 0 0 0 0 0 0 0 0 0 0 0 0 0 0 0 0 0 0 0 0 0 0 0 0 0 0 0 0 0 0 0 0 0 0 0 0 0 0 0 0 0
0 0 0 0 0 0 0 0 0 0 0 0 0 0 0 0 0 0 0 0 0 0 0 0 0 0 0 0 0 0 0 0 0 0 0 0 0 0 0 0 0 0 0 0 0 0 0 0 0
17 21 8 6 1 0 0 0 0 0 0 0 0 0 0 0 0 0 0 0 0 0 0 0 0 0 0 0 0 0 0 0 0 0 0 0 0 0 0 0 0 0 0 0 0 0 0 0 0
8 21 2 1 0 0 0 0 0 0 0 0 0 0 0 0 0 0 0 0 0 0 0 0 0 0 0 0 0 0 0 0 0 0 0 0 0 0 0 0 0 0 0 0 0 0 0 0 0
0 1 0 0 0 0 0 0 0 0 0 0 0 0 0 0 0 0 0 0 0 0 0 0 0 0 0 0 0 0 0 0 0 0 0 0 0 0 0 0 0 0 0 0 0 0 0 0 0
1 2 2 2 0 0 0 0 0 0 0 0 0 0 0 0 0 0 0 0 0 0 0 0 0 0 0 0 0 0 0 0 0 0 0 0 0 0 0 0 0 0 0 0 0 1 1 2 1
13 16 8 0 0 0 0 0 0 0 0 0 0 0 0 0 0 0 0 0 0 0 0 0 0 0 0 0 0 0 0 0 0 0 0 0 0 0 0 0 0 0 0 0 1 1 1 1 1
2 2 6 5 0 0 0 0 0 0 0 0 0 0 0 0 0 0 0 0 0 0 0 0 0 0 0 0 0 0 0 0 0 0 0 0 0 0 0 0 0 0 1 1 1 1 2 3 4
CIN
0 0 0 0 0 0 0 0 0 0 0 0 0 0 0 0 0 0 -123 -102 0 -127 -48 -49 -2 0 -1 -24 -49 -15 -26 -4 -2 -21 -90 -157 0 -1 -1 0 0 0 0 0 0 -1 -3 0 0
0 0 0 0 0 0 0 0 0 0 0 0 0 0 0 0 0 -96 -41 -63 -108 -76 -113 -88 -19 -5 -8 -47 -40 -14 -23 -16 -28 -79 -132 -113 0 -1 -1 0 -3 0 0 0 -1 0 -1 0 0
0 0 0 0 0 0 0 0 0 0 0 0 0 0 0 0 0 -26 0 -92 -84 -133 -54 -144 -38 -23 -34 -78 -113 -128 -68 -27 -66 -116 -159 0 0 0 -1 0 -1 -1 0 0 -1 0 0 0 0
0 0 0 0 0 0 0 0 0 0 0 0 0 0 0 0 0 0 -3 -95 -3 0 0 -177 -73 -53 -66 -114 -198 -86 -67 -41 -63 -102 -250 -4 0 -1 0 -1 0 0 0 0 0 0 0 0 0
0 0 0 0 0 0 0 0 0 0 0 0 0 0 0 0 0 0 0 -78 0 0 0 -175 -140 -105 -179 -171 -114 -191 -45 -27 -53 -104 -20 0 0 0 -1 0 0 0 0 0 0 0 0 0 0
0 0 0 0 0 0 0 0 0 0 0 0 0 0 0 0 0 0 0 0 0 0 0 -179 -183 -49 0 0 -139 -153 -41 -50 -99 -104 0 0 0 0 0 0 0 0 0 0 0 0 0 0 0
0 0 0 0 0 0 0 0 0 0 0 0 0 0 0 0 0 0 -35 -40 0 0 0 -42 -214 0 0 0 0 0 -49 -43 -10 0 -1 0 0 0 0 0 0 0 0 0 0 0 0 0 0
0 0 0 0 0 0 0 0 0 0 0 0 0 0 0 0 0 -32 -37 -41 0 0 0 0 0 0 0 0 0 0 0 -2 0 0 0 0 0 0 0 0 0 0 0 0 0 0 0 0 0
0 0 0 0 0 0 0 0 0 0 0 0 0 0 0 0 -3 -35 -37 0 0 0 0 0 0 0 0 0 0 0 0 0 0 0 0 0 0 0 0 0 0 0 0 0 0 0 0 0 0
0 0 0 0 0 0 0 0 0 0 0 0 0 0 0 0 0 0 -10 0 0 0 0 0 0 0 0 0 0 0 0 0 0 0 0 0 0 0 0 0 0 0 0 0 0 0 0 0 0
0 0 0 0 0 0 0 0 0 0 0 0 0 0 0 0 0 0 0 0 0 0 0 0 0 0 0 0 0 0 0 0 0 0 0 0 0 0 0 0 0 0 0 0 0 0 0 0 0
0 0 0 0 0 0 0 0 0 0 0 0 0 0 0 0 0 0 0 0 -2 0 -24 0 0 0 0 0 0 0 0 0 0 0 0 0 0 0 0 0 0 0 0 0 0 0 0 0 0
0 0 0 0 0 0 0 0 0 0 0 0 0 0 0 0 0 0 0 0 -52 -52 -62 0 0 0 0 0 0 0 0 0 0 0 0 0 0 0 0 0 0 0 0 0 0 0 0 0 0
0 0 0 0 0 0 0 0 0 0 0 0 0 0 0 0 0 0 0 0 0 0 -38 0 0 0 0 0 0 0 0 0 0 0 0 0 0 0 0 0 0 0 0 0 0 0 0 0 0
0 0 0 0 0 0 0 0 0 0 0 0 0 0 0 0 0 0 0 0 0 0 -27 -44 0 0 0 0 0 0 0 0 0 0 0 0 0 0 0 0 0 0 0 0 0 0 0 0 0
0 0 0 0 0 0 0 0 0 0 0 0 0 0 0 0 0 0 0 0 0 0 0 -42 -60 -44 0 0 0 0 0 0 0 0 0 0 0 0 0 0 0 0 0 0 0 0 0 0 0
0 0 0 0 0 0 0 0 0 0 0 0 0 0 0 0 0 0 0 0 0 0 0 0 -55 -13 0 0 0 0 0 0 0 0 0 0 0 0 0 0 0 0 0 0 0 0 0 0 0
0 0 0 0 0 0 0 0 0 0 0 0 0 0 0 0 0 0 0 0 0 0 0 0 -4 -48 0 0 0 0 0 0 0 0 0 0 0 0 0 0 0 0 0 0 0 0 0 0 0
0 0 0 0 0 0 0 0 0 0 0 0 0 0 0 0 0 0 0 0 0 0 0 0 0 0 0 0 0 0 0 0 0 0 0 0 0 0 0 0 0 0 0 0 0 0 0 0 0
0 0 0 0 0 0 0 0 0 0 0 0 0 0 0 0 0 0 0 0 0 0 0 0 0 0 0 0 0 0 0 0 0 0 0 0 0 0 0 0 0 0 0 0 0 0 0 0 0
0 -3 0 0 0 0 0 0 0 0 0 0 0 0 0 0 0 0 0 0 0 0 0 0 0 0 0 0 0 0 0 0 0 0 0 0 0 0 0 0 0 0 0 0 0 0 0 0 0
0 0 0 0 0 0 0 0 0 0 0 0 0 0 0 0 0 0 0 0 0 0 0 0 0 0 0 0 0 0 0 0 0 0 0 0 0 0 0 0 0 0 0 0 0 0 0 0 0
0 0 0 0 0 -1 0 -3 0 0 0 0 0 0 0 0 0 0 0 0 0 0 0 0 0 0 0 0 0 0 0 0 0 0 0 0 0 0 0 0 0 0 0 0 0 0 0 0 0
0 -2 0 0 0 0 0 0 0 0 0 0 0 0 0 0 0 0 0 0 0 0 0 0 0 0 0 0 0 0 0 0 0 0 0 0 0 0 0 0 0 0 0 0 0 0 0 0 0
-7 -2 -1 -1 -7 0 0 0 0 0 0 0 0 0 0 0 0 0 0 0 0 0 0 0 0 0 0 0 0 0 0 0 0 0 0 0 0 0 0 0 0 0 0 0 0 0 0 0 0
-1 0 -3 -3 0 0 0 0 0 0 0 0 0 0 0 0 0 0 0 0 0 0 0 0 0 0 0 0 0 0 0 0 0 0 0 0 0 0 0 0 0 0 0 0 0 0 0 0 0
-1 0 0 -1 0 0 0 0 0 0 0 0 0 0 0 0 0 0 0 0 0 0 0 0 0 0 0 0 0 0 0 0 0 0 0 0 0 0 0 0 0 0 0 0 0 0 0 0 0
-12 -4 -10 -5 -2 0 0 0 0 0 0 0 0 0 0 0 0 0 0 0 0 0 0 0 0 0 0 0 0 0 0 0 0 0 0 0 0 0 0 0 0 0 0 0 0 0 0 0 0
-2 0 -2 -1 0 0 0 0 0 0 0 0 0 0 0 0 0 0 0 0 0 0 0 0 0 0 0 0 0 0 0 0 0 0 0 0 0 0 0 0 0 0 0 0 0 0 0 0 0
-1 0 -16 -1 0 0 0 0 0 0 0 0 0 0 0 0 0 0 0 0 0 0 0 0 0 0 0 0 0 0 0 0 0 0 0 0 0 0 0 0 0 0 0 0 0 0 -49 -53 -80
Wind_Speed
24 23 20 17 18 19 19 17 16 14 16 17 15 15 15 17 16 16 19 19 21 22 16 12 11 15 15 16 15 23 20 17 17 18 17 16 16 16 16 17 14 12 12 15 17 17 14 15 20
23 21 18 17 18 21 20 17 13 14 12 14 16 16 16 15 15 16 18 21 22 23 20 15 13 14 12 12 14 19 17 16 18 17 17 17 18 19 17 15 11 12 15 16 18 16 15 17 20
19 18 19 19 19 20 20 16 11 12 9 15 15 16 15 14 15 17 17 21 22 22 21 16 13 13 13 9 8 12 4 8 18 17 18 18 18 18 16 12 11 13 14 16 16 15 16 18 21
19 19 19 22 22 21 21 15 10 9 14 15 13 15 15 14 14 15 18 19 20 20 21 18 13 13 11 5 5 9 12 10 15 17 18 18 17 16 12 10 13 13 13 13 14 14 15 17 20
17 18 24 24 25 22 22 12 7 9 14 13 12 14 13 13 13 16 17 17 20 19 18 19 17 3 13 11 14 13 16 9 13 15 16 17 17 13 11 12 13 12 11 12 13 13 15 16 18
18 18 22 26 24 22 17 12 13 13 12 11 14 12 11 11 13 15 15 16 17 19 18 16 21 6 17 15 4 5 5 8 10 12 13 15 15 13 12 13 13 12 12 12 12 13 15 17 17
19 19 22 23 24 22 19 15 17 14 12 13 9 13 13 8 12 15 13 14 16 17 16 13 27 15 15 16 7 4 6 5 8 11 12 13 12 11 12 13 12 13 13 13 13 14 15 16 18
17 19 20 20 22 22 19 17 18 16 15 8 13 15 13 8 12 11 9 9 14 16 15 13 20 19 11 14 12 7 4 5 7 9 10 12 11 10 12 13 13 14 13 13 14 14 15 16 18
17 23 22 21 19 21 20 21 17 15 11 14 15 13 15 10 10 9 6 3 4 10 15 8 9 23 12 9 12 9 7 4 6 7 9 9 8 9 11 11 11 11 11 13 13 14 15 16 18
22 24 25 19 16 19 20 20 17 17 15 17 15 16 10 8 8 10 10 3 3 9 11 16 13 7 21 15 10 10 7 5 6 6 7 7 6 7 8 9 9 10 11 12 13 14 15 16 17
23 26 21 22 17 17 20 19 19 18 19 20 14 9 4 3 5 9 8 6 7 12 4 11 13 4 4 8 7 8 4 3 5 5 5 6 7 7 8 8 9 10 10 11 13 14 14 15 16
28 27 23 23 20 19 21 22 21 19 22 22 18 6 2 4 6 9 9 8 4 8 11 10 8 7 9 2 3 3 4 5 5 6 4 4 5 6 7 7 8 8 9 10 11 12 13 14 15
29 26 25 25 28 26 23 26 23 23 22 20 13 6 1 4 2 1 6 3 4 6 9 10 8 8 5 5 5 6 7 7 6 6 3 3 5 6 6 7 7 8 10 10 10 12 12 13 14
26 28 27 27 27 26 27 29 26 25 22 19 12 9 6 3 4 2 4 7 5 5 7 8 11 12 8 8 7 7 5 5 6 6 7 2 1 3 4 5 5 7 8 9 9 10 12 13 13
27 29 31 29 27 26 24 33 32 27 23 21 19 17 13 7 9 8 9 7 6 5 6 7 8 10 8 8 8 7 7 5 6 7 6 4 1 1 3 4 6 6 9 11 12 12 13 13 14
30 31 35 28 27 27 25 38 30 24 23 25 22 22 20 12 9 7 6 8 5 7 8 9 10 10 9 8 7 5 5 6 6 5 5 4 3 4 5 5 9 12 13 12 12 12 13 14 14
32 40 38 33 27 28 27 33 34 27 25 29 28 25 21 24 20 17 9 9 7 7 8 9 9 10 11 11 10 9 7 7 7 6 6 5 6 6 6 9 11 11 10 10 11 12 14 14 14
40 39 36 36 30 33 39 42 35 27 29 33 35 34 27 21 14 12 9 9 8 8 8 9 11 11 12 14 12 12 9 9 8 9 8 8 8 8 10 11 11 11 11 11 12 13 14 15 15
32 38 41 33 32 32 41 48 45 42 41 38 37 37 35 27 24 23 27 14 12 11 10 11 11 12 12 14 15 16 14 13 12 11 10 9 11 11 11 11 12 12 11 11 12 14 14 14 15
36 38 40 35 35 35 41 49 45 44 44 44 43 43 38 31 32 29 24 19 14 13 13 12 12 13 13 14 16 17 16 16 13 12 12 14 12 12 13 12 10 10 12 13 14 15 17 16 12
41 44 39 37 31 33 39 52 52 44 44 44 42 39 41 33 21 26 24 20 18 16 15 14 14 14 14 14 16 19 20 22 16 18 18 17 14 13 12 12 13 13 13 14 15 15 15 16 15
45 35 37 41 39 46 32 54 49 41 45 46 48 36 25 39 26 27 24 22 18 16 18 17 16 16 16 15 16 16 16 16 19 19 18 17 14 14 14 15 15 15 15 16 15 15 15 15 16
37 29 35 39 45 46 48 50 49 41 49 47 42 40 33 22 25 25 21 21 22 20 19 19 20 19 17 17 18 18 18 20 24 22 21 19 19 16 16 15 15 15 16 16 16 16 15 15 17
28 30 30 32 38 57 59 50 58 51 47 45 39 39 39 29 20 19 18 18 20 21 22 23 22 21 19 19 20 20 19 20 23 22 22 23 21 19 17 17 17 18 17 17 18 18 17 17 18
29 31 40 45 47 58 44 50 63 40 39 40 41 41 38 36 27 24 21 17 16 16 19 22 22 23 22 21 21 21 21 22 21 21 21 21 20 19 19 19 19 19 19 20 20 20 19 20 20
29 30 40 48 49 54 38 53 54 42 43 43 41 41 38 35 32 30 28 22 16 16 16 17 18 21 23 23 23 23 23 22 22 21 21 21 21 21 21 21 21 22 22 22 22 23 23 23 23
24 34 30 38 37 46 46 50 50 45 44 42 43 41 41 38 36 32 28 26 23 20 16 17 18 18 20 22 25 24 23 22 21 21 23 23 23 23 24 22 22 23 24 25 25 26 26 25 25
31 23 32 35 46 52 49 51 52 38 41 42 44 44 41 39 36 34 31 30 25 23 20 20 18 18 18 19 22 24 23 23 24 24 23 21 22 23 24 25 26 26 26 26 27 27 27 28 28
34 37 31 28 36 44 52 50 36 44 41 43 41 39 38 36 34 30 27 27 27 25 23 21 18 19 19 18 19 22 25 24 21 20 19 22 26 27 27 27 26 26 25 25 26 26 27 29 30
37 40 35 40 41 39 45 56 27 25 27 32 39 39 35 31 26 26 27 26 24 24 23 22 21 19 19 18 18 19 23 27 27 29 29 29 27 26 26 27 27 26 25 24 25 27 26 29 30
Wind_Direction
290 291 299 303 291 290 285 300 311 324 329 338 4 14 33 38 50 53 115 110 112 115 96 68 48 68 67 69 67 93 74 61 59 62 54 44 40 39 38 38 31 23 24 36 46 40 28 25 42
293 294 297 298 289 283 286 299 314 318 351 20 9 9 10 35 53 72 93 112 113 117 111 83 69 70 60 58 65 83 67 65 73 62 55 52 48 50 41 34 20 23 30 41 49 40 28 32 45
306 301 285 284 286 285 288 295 313 328 22 340 350 8 22 29 54 90 110 110 112 112 111 93 76 75 67 41 31 51 320 36 77 65 63 63 57 50 42 24 19 26 30 43 44 35 33 38 51
300 290 290 277 281 282 278 292 312 334 328 345 10 353 21 52 80 96 104 107 112 110 111 101 80 78 68 347 360 244 224 55 73 70 64 63 59 50 27 18 27 27 27 35 37 29 29 32 47
302 286 270 273 274 283 279 285 311 333 322 332 355 344 9 33 67 92 104 108 112 109 105 106 98 47 236 244 225 223 214 60 68 67 61 62 59 47 26 28 33 25 21 27 30 27 26 30 33
284 285 272 267 273 277 281 280 295 312 328 344 334 354 15 33 78 99 100 109 112 114 108 98 117 216 220 226 290 273 272 53 57 53 57 59 58 50 37 37 32 24 26 27 27 22 24 29 24
278 276 273 274 272 274 271 280 282 300 315 318 3 340 350 45 96 105 102 106 112 113 111 97 166 231 229 229 262 321 276 344 41 52 55 52 52 40 37 39 32 33 37 33 28 27 20 14 15
284 279 274 276 272 270 275 276 286 291 299 351 325 326 336 91 106 96 89 98 114 119 117 111 221 225 254 244 254 282 331 22 40 44 47 52 51 43 48 51 49 51 45 38 36 30 16 6 8
284 269 271 272 274 275 275 273 284 295 304 308 306 326 321 102 98 98 93 74 98 113 126 110 137 222 254 271 259 276 293 355 31 40 50 46 39 41 47 40 33 37 37 42 37 20 7 2 9
268 266 266 278 284 279 276 274 274 283 287 293 306 306 334 106 113 123 128 137 155 135 131 138 132 171 232 252 274 279 298 330 354 21 29 26 3 360 11 2 12 32 45 45 28 14 8 13 13
267 264 272 269 281 287 280 278 280 278 280 281 301 326 26 95 117 134 132 144 152 149 152 141 142 147 272 276 290 290 323 1 350 14 22 17 352 7 18 10 16 28 26 17 10 13 17 21 21
263 268 267 272 278 279 278 279 277 279 281 284 289 315 25 133 137 145 143 146 178 155 156 152 154 152 141 121 101 86 92 84 74 86 34 23 17 22 18 13 33 38 25 22 20 19 20 20 21
262 268 267 268 267 275 277 271 277 277 284 289 295 299 283 154 156 147 145 161 172 174 161 164 167 169 167 154 142 137 136 131 121 116 60 344 334 346 353 354 9 16 357 10 14 15 20 20 18
269 265 269 267 268 273 272 268 274 273 280 288 290 288 286 239 190 216 159 164 185 193 186 178 175 170 173 169 164 161 161 151 139 137 138 118 60 1 17 2 18 11 6 6 10 12 8 9 15
265 265 264 265 265 270 275 265 262 270 278 280 281 283 284 277 273 189 176 178 183 210 222 221 209 190 199 187 178 173 176 180 172 165 159 155 172 328 337 340 341 345 338 338 343 346 349 358 1
258 261 257 264 261 266 269 261 267 271 272 272 279 279 279 277 262 226 223 197 220 249 245 249 249 220 217 223 230 226 202 195 205 206 191 194 231 282 299 309 312 314 318 327 335 343 348 349 354
256 252 255 260 264 263 261 267 268 269 270 269 273 278 282 277 277 275 255 207 228 218 240 249 244 234 235 244 243 247 235 217 220 244 231 235 258 274 286 296 303 311 317 323 329 335 338 342 347
251 253 257 257 265 261 260 261 264 277 270 269 269 271 277 278 265 258 239 257 241 224 221 219 252 251 245 257 254 256 254 240 227 236 240 229 247 265 282 291 295 302 309 315 322 324 329 334 338
261 257 257 264 265 267 260 258 258 262 266 269 269 267 271 275 273 275 273 273 268 259 228 226 223 248 246 251 255 261 250 260 256 252 237 240 262 268 275 283 290 296 299 304 311 318 320 323 332
257 257 259 267 268 267 265 259 263 264 265 264 265 263 269 275 271 271 275 271 254 226 222 233 227 243 239 246 256 264 264 268 259 252 259 266 262 265 268 275 277 283 293 297 302 310 315 316 320
256 255 259 263 275 273 270 262 259 264 264 266 268 272 267 273 273 277 274 267 258 245 228 233 236 236 235 240 260 267 272 275 269 270 269 267 260 258 256 264 276 280 287 292 295 300 305 308 311
255 261 263 264 267 261 271 261 260 265 263 264 263 274 275 270 277 276 273 269 258 246 253 241 249 243 243 239 249 241 249 252 267 268 270 269 261 260 263 268 273 279 284 287 288 293 298 302 303
261 269 265 265 263 265 262 264 261 265 261 263 268 273 278 271 274 273 265 263 265 260 247 243 246 247 245 243 234 245 241 264 273 273 273 269 273 265 265 263 269 271 277 280 283 288 288 291 296
266 268 269 269 266 256 254 259 258 259 264 268 274 276 277 280 270 252 250 245 260 264 260 260 249 239 243 245 243 240 245 258 269 270 270 274 274 274 264 266 266 270 273 276 280 282 284 284 287
255 258 258 257 255 255 262 257 254 263 269 272 275 277 279 280 282 281 277 245 248 249 256 259 252 243 242 242 248 244 249 257 256 264 268 271 272 271 266 265 267 268 272 277 281 282 281 282 283
248 249 254 256 257 259 264 257 260 267 271 272 276 278 282 282 283 284 285 280 252 253 240 235 243 241 243 241 244 254 256 258 259 260 264 266 266 271 276 272 272 273 276 277 280 282 284 285 282
259 250 258 268 270 265 264 266 270 269 270 273 275 277 277 280 280 283 286 289 286 276 257 237 237 236 245 243 248 252 257 256 256 262 271 271 275 278 280 277 276 277 280 280 280 281 282 283 282
259 264 262 260 260 261 264 265 262 271 270 271 275 276 279 278 280 281 281 283 286 285 278 269 261 253 248 243 243 246 252 260 266 273 272 272 275 281 281 281 281 282 282 282 282 283 284 285 285
255 255 263 269 264 265 266 267 277 273 275 275 279 281 281 280 278 282 284 285 285 288 283 276 270 268 268 265 256 253 262 264 263 262 264 273 282 283 283 282 283 282 282 283 284 284 285 286 287
257 255 254 260 263 268 269 265 280 288 289 292 287 286 284 281 281 281 282 285 287 288 289 282 279 277 276 275 270 262 267 271 273 277 280 283 284 286 285 285 284 283 283 283 284 286 287 288 289